Location: Sternwarte Stuttgart
(48.7670°N, 9.1830°E)
Time: 06:13:41
(UTC+02:00)

USA 116 - Pass Details

Date: 24 January 2019
Orbit: 405 x 834 km, 97.9° (Epoch: 18 November)

Event Time Altitude Azimuth Distance (km) Brightness Sun altitude
Rises 05:52:20 0° 178° (S) 3,077 7.6 -21.4°
Reaches altitude 10° 05:54:33 10° 183° (S) 2,215 6.8 -21.0°
Maximum altitude 05:59:23 55° 261° (W) 925 4.4 -20.2°
Enters shadow 06:03:46 15° 336° (NNW) 2,068 6.3 -19.5°
